Location: Unnamed
(25.2826°S, 57.6099°W)
Time: 23:19:23
(UTC-04:00)

BlueWalker 3 - Pass Details

Date: 25 January 2026
Orbit: 451 x 460 km, 53.2° (Epoch: 18 February)

Event Time Altitude Azimuth Distance (km) Brightness Sun altitude
Exits shadow 03:57:26 49° 293° (WNW) 606 1.9 -17.8°
Maximum altitude 03:58:15 69° 230° (SW) 499 1.7 -17.7°
Drops below altitude 10° 04:01:53 10° 146° (SE) 1,623 5.5 -17.0°
Sets 04:04:04 0° 143° (SE) 2,506 6.8 -16.5°
